Location: Gull Harbor
(47.1000°N, 122.9000°W)
Time: 19:49:36
(UTC-07:00)

X-37B - Pass Details

Date: 02 August 2021
Orbit: 381 x 393 km, 45.0° (Epoch: 29 August)

Event Time Altitude Azimuth Distance (km) Brightness Sun altitude
Exits shadow 04:49:31 13° 207° (SSW) 1,232 2.6 -9.8°
Maximum altitude 04:51:39 24° 156° (SSE) 835 2.1 -9.5°
Drops below altitude 10° 04:54:16 10° 99° (E) 1,398 4.0 -9.1°
Sets 04:56:33 0° 85° (E) 2,254 5.5 -8.8°
